Powrót do katalogu

DELTA 1 DEB

LostLEO
NORAD 14529·DEBRIS·🇺🇸 United States

Wystrzelony Jul 14, 1977 z Cape Canaveral Space Force Station

Loading…

Następne Przeloty (najbliższe 24 godziny)

TLE

NieaktualneSource: Space-Track

Epoka: Jul 14, 2026, 06:51 UTC

1 14529U 77065FQ  26195.28594492  .00000343  00000-0  85763-3 0  9994
2 14529  29.0302  88.8860 0626155 201.6028 155.6944 12.51930349493569

Śledź DELTA 1 DEB w czasie rzeczywistym z AllMySat

Download on the App Store